星链-31202 (STARLINK-31202 )

导读 | 星芒AI

STARLINK-31202 是 SpaceX Starlink 项目中的一颗低轨通信卫星,属于第 12 批 Starlink 卫星任务(Transporter 5)的一部分,于 2023 年 9 月发射。该卫星运行在约 550 公里的高度,旨在为全球用户提供高速互联网服务。Starlink 卫星采用先进推进系统和激光通信技术,具备高带宽和低延迟特性,支持偏远地区网络接入。STARLINK-31202 的部署有助于扩大 Starlink 网络覆盖范围,提升服务质量和稳定性。

基本信息
目录编号:
59042
目录名称:
STARLINK-31202
国际标识:
2024-038V
轨道中心:
EARTH
卫星名称:
星链-31202
卫星全名:
星链-31202 (STARLINK-31202 )
卫星状态:
在轨 (已飞行614 天)
发射日期:
2024-02-25 UTC
国别 :
美国 (US)
星等 :
--
轨道信息
数据来源 国际轨道数据
星历时间: 2025-10-31T22:39:23+0800
6小时前
查看轨道信息
半长轴: 6861.167km
偏心率: 0.0001103
轨道倾角: 43.001°
近地点辐角 273.191°
升交点赤经 31.996°
平近点角 86.882°
近地点: 482.275km
远地点: 483.789km
周期: 94.266分钟
每日圈数: 15.275866
详细信息
固有亮度:
5
最大亮度:
0.3
卫星平台:
Starlink v2.0 mini
覆盖范围:
全球
运营商:
太空探索技术公司
运营商所在国:
美国
制造商(研发单位):
太空探索技术公司
制造商所在国:
美国
使用方式:
暂无
卫星简介
星链(Starlink)计划是由太空探索技术公司(SpaceX)提出的一个巨型低轨卫星互联网星座项目,计划在2019年至2024年间在太空搭建由约1.2万颗卫星组成的“星链”网络,其中1584颗将部署在地球上空550千米处的近地轨道,并从2020年开始工作。该卫星仍在工作。
2D轨道图
3D轨道图
轨道高度分析图
轨道倾角分析图
轨道综合分析图
查看轨道综合分析图